Flag for Germany Weather past 2 weeks in Steinfurt, North Rhine-Westphalia, Germany

Now
52 °F

Passing clouds.


Feels Like: 51 °F
Forecast: 50 / 58 °F
Wind: 5 mph from Southwest

Location: Rheine-Bentlage

Current Time: Sep 4, 2015 at 6:26:13 AM

Latest Report: Sep 4, 2015 at 5:20 AM


Visibility: N/A

Pressure: 29.92 "Hg

Humidity: 88%

Dew point: 48 °F

Location of SteinfurtLocation

Historic Weather in Steinfurt — Graph

°F

Steinfurt temperature yesterday

Maximum temperature yesterday: 64 °F (at 2:20 PM)
Minimum temperature yesterday: 48 °F (at 7:20 AM)
Average temperature yesterday: 56 °F

Past Weeks' High & Low Weather Summary

 TemperatureHumidityPressure
High86 °F (Aug 31, 4:20 PM)100% (Aug 20, 5:20 AM)30.27 "Hg (Aug 20, 5:20 AM)
Low48 °F (Aug 29, 4:20 AM)34% (Aug 22, 4:20 PM)29.50 "Hg (Aug 24, 6:20 PM)
Average64 °F76%29.95 "Hg
* Reported Aug 20 4:20 AM — Sep 4 4:20 AM, Steinfurt, Weather by CustomWeather, © 2015

Note: Actual official high and low records may vary slightly from our data, if they occured in-between our weather recording intervals... More about our weather records

Advertising

Steinfurt weather history for previous 24 hours

 ConditionsComfort  
Time TempWeatherWind HumidityBarometerVisibility
4:20 AM
Fri, Sep 4
52 °FCool.5 mph94%29.92 "HgN/A
3:20 AM52 °FCool.5 mph94%29.92 "HgN/A
2:20 AM54 °FCool.5 mph88%29.92 "HgN/A
1:20 AM54 °FCool.3 mph88%29.92 "HgN/A
12:20 AM54 °FCool.5 mph88%29.92 "HgN/A
11:20 PM
Thu, Sep 3
52 °FCool.5 mph88%29.92 "HgN/A
10:20 PM54 °FCool.5 mph88%29.92 "HgN/A
9:20 PM54 °FCool.5 mph88%29.92 "HgN/A
8:20 PM55 °FCool.5 mph82%29.92 "HgN/A
7:20 PM57 °FCool.5 mph82%29.92 "HgN/A
6:20 PM57 °FCool.5 mph82%29.92 "HgN/A
5:20 PM59 °FCool.3 mph77%29.92 "HgN/A
4:20 PM57 °FCool.12 mph82%29.92 "HgN/A
3:20 PM63 °FBroken clouds.7 mph64%29.92 "HgN/A
2:20 PM64 °FBroken clouds.9 mph56%29.92 "HgN/A
1:20 PM63 °FPartly sunny.8 mph59%29.92 "HgN/A
12:20 PM61 °FScattered clouds.7 mph63%29.92 "HgN/A
11:20 AM61 °FScattered clouds.6 mph63%29.95 "HgN/A
10:20 AM59 °FPassing clouds.5 mph68%29.95 "HgN/A
9:20 AM57 °FPassing clouds.3 mph77%29.95 "HgN/A
8:20 AM54 °FPassing clouds.2 mph88%29.95 "HgN/A
7:20 AM48 °FFog.1 mph94%29.95 "Hg5 mi
6:20 AM50 °FFog.1 mph100%29.95 "HgN/A
Weather by CustomWeather, © 2015

See weather overviewHow to use our weather pages